Hourly Data Report for June 29, 2011

HALIFAX STANFIELD INT'L A
NOVA SCOTIA

44°52'48.060" N
63°30'00.050" W
145.40 m
8202250
71395
YHZ

Download Data

Hourly Data (June 2011)
Hourly Data Report for June 29, 2011
TIME
LST
Temp Definition
°C
Dew Point Definition
°C
Rel Hum Definition
%
Precip. Amount Definition
mm

Wind Dir Definition
10's deg

Wind Spd Definition
km/h
Visibility Definition
km
Stn Press Definition
kPa
Hmdx Definition


Wind Chill Definition


Weather Definition


00:00 14.5 11.5 82   17 13 24.1 99.72     Cloudy
01:00 14.6 11.2 80   18 6 24.1 99.70     Cloudy
02:00 14.2 11.5 84   15 11 24.1 99.67     Cloudy
03:00 12.7 11.5 92   15 15 24.1 99.69     Mostly Cloudy
04:00 12.1 11.4 95   14 17 0.4 99.70     Fog
05:00 11.8 11.2 96   14 20 0.4 99.67     Fog
06:00 12.5 11.9 96   16 11 0.4 99.69     Fog
07:00 13.0 12.4 96   15 17 0.4 99.70     Fog
08:00 14.8 13.9 94   13 11 24.1 99.73     Mostly Cloudy
09:00 16.6 14.9 90   12 11 24.1 99.68     Cloudy
10:00 17.3 15.4 89   16 17 4.8 99.67     Fog
11:00 16.1 15.0 93   14 17 0.8 99.62     Fog
12:00 18.3 15.4 83   15 15 9.7 99.61     Fog
13:00 18.4 15.3 82   13 22 16.1 99.56     Cloudy
14:00 18.5 15.5 83   13 26 16.1 99.52     Cloudy
15:00 16.7 15.6 93   14 17 1.2 99.48     Drizzle, Fog
16:00 16.0 15.1 94   13 24 0.8 99.43     Moderate Drizzle, Fog
17:00 15.4 14.6 95   13 19 1.2 99.41     Drizzle, Fog
18:00 14.9 14.1 95   14 19 1.2 99.36     Drizzle, Fog
19:00 14.3 13.6 96   13 20 0.8 99.32     Drizzle, Fog
20:00 14.0 13.5 97   14 15 0.4 99.31     Fog
21:00 13.9 13.3 96   13 13 0.4 99.34     Fog
22:00 13.8 13.2 96   13 11 0.4 99.29     Fog
23:00 13.9 13.3 96   14 15 0.4 99.29     Fog

Notes on Data Quality.

Legend

  • E = Estimated
  • M = Missing
  • NA = Not Available*
  • [empty] = Indicates an unobserved value
Date modified: